sat.trackr.live / text

‹ back to catalog

ONEWEB-0051

NORAD 45155 · 2020-008AA

PAYLOAD ACTIVE UNKNOWN

§ Identity

Operator
Country
UK
Launch date
2020-02-06
Launch site
TYMSC
Launch vehicle
Mass (kg)
RCS (m²)

Purposes: comms

External: N2YO · Heavens-Above · Gunter

§ Orbital elements

Epoch: 2026-09-20T01:48:11.848032Z

Period
109.80 min
Inclination
87.8968°
Eccentricity
0.0001785
Mean motion
13.11417263 rev/d
Perigee alt
1,216.3 km
Apogee alt
1,219.0 km
Semi-major
7,595.8 km
B*
-1.5096e-3
RAAN
2.2057°
Arg perigee
102.0705°
Mean anomaly
258.0623°
Rev number
32,352

§ Raw data

ONEWEB-00511 45155U 20008AA  26263.07513713 -.00000522  00000+0 -15096-2 0  99992 45155  87.8968   2.2057 0001785 102.0705 258.0623 13.11417263323520

JSON: /api/v1/satellites/45155 · /tle

For live sub-satellite position, see the globe view (requires WebGL).

§ Visibility from observer

Set your observer location to see the next 7 days of passes ≥ 10°. The values pass through the URL so the page stays shareable.

No JS? Fill the form by hand. The geolocation button needs JavaScript.